Miscellaneous Local Product
Issued by NWS North Platte, NE

Home | Current Version | Previous Version | Graphics & Text | Print | Product List | Glossary On
Versions: 1 2 3 4 5 6 7 8 9 10 11 12 13 14 15 16 17 18 19 20 21 22 23 24 25 26 27 28 29 30 31 32 33 34 35 36 37 38 39 40 41 42 43 44 45 46 47 48 49 50
000
AXUS43 KLBF 040110
MISLBF


WESTERN AND NORTH CENTRAL NEBRASKA HOURLY WEATHER ROUNDUP
NATIONAL WEATHER SERVICE NORTH PLATTE NE
800 PM CDT THU SEP 03 2015

NOTE: "FAIR" INDICATES FEW OR NO CLOUDS BELOW 12,000 FEET WITH NO
SIGNIFICANT WEATHER AND/OR OBSTRUCTIONS TO VISIBILITY.

NOTE: STATIONS NOT REPORTING VARIABLES SUCH AS SKY/WEATHER OR
PRESSURE ARE PROVIDED BY THE NEBRASKA DEPARTMENT OF
ROADS...RAWS...AND APRS NETWORKS...AND ARE NOT UNDER
NATIONAL WEATHER SERVICE QUALITY CONTROL.

...OBSERVATIONS IN AND NEAR THE EASTERN PANHANDLE OF NEBRASKA...

CITY           SKY/WX    TMP DP  RH WIND       PRES   REMARKS
PINE RIDGE     CLOUDY    84  47  27 E13G24    29.82R
CHADRON        CLOUDY    87  44  22 S15G23    29.78R
ALLIANCE       CLOUDY    81  47  30 NW5G17    29.87R
SIDNEY         MOCLDY    78  48  34 W8        29.89R
CRESCENT LAKE    N/A     80  51  35 NE7         N/A
BIG SPRINGS      N/A     83  55  37 CALM        N/A
$$

...OBSERVATIONS IN NORTH CENTRAL NEBRASKA...

CITY           SKY/WX    TMP DP  RH WIND       PRES   REMARKS
VALENTINE      CLOUDY    85  54  34 NW8       29.78R
THEDFORD       MOCLDY    85  61  44 CALM      29.80R
AINSWORTH      CLOUDY    84  63  49 S8        29.77R
O`NEILL        MOCLDY    82  71  67 SE8       29.76S
ORD            CLEAR     88  63  43 SE7       29.74S
BROKEN BOW     PTCLDY    85  64  49 E6        29.76S
SPRINGVIEW       N/A     85  68  56 CALM        N/A
SARGENT          N/A     84  65  53 CALM        N/A
CHAMBERS         N/A     80  68  67 S3          N/A
EWING            N/A     80  69  68 CALM        N/A
$$

...OBSERVATIONS IN SOUTHWEST NEBRASKA AND FAR NORTHEAST COLORADO...

CITY           SKY/WX    TMP DP  RH WIND       PRES   REMARKS
WRAY           CLOUDY    84  49  30 NE13      29.79S
HOLYOKE        FAIR      86  45  23 N10       29.81S
IMPERIAL       CLOUDY    85  54  34 SW6       29.78R
OGALLALA       MOCLDY    84  53  34 N13       29.78R
NORTH PLATTE   CLOUDY    82  67  60 E9        29.74F
MCCOOK         CLOUDY    91  57  31 S17G24    29.74R
LEXINGTON      CLOUDY    85  65  50 SE7       29.74S
PAXTON           N/A     83  69  62 E3          N/A
BRADY            N/A     82  68  62 CALM        N/A
CALLAWAY         N/A     77  69  76 E7          N/A
$$

...OBSERVATIONS IN CENTRAL LINCOLN COUNTY AREA...

CITY           SKY/WX    TMP DP  RH WIND       PRES   REMARKS
N.P. AIRPORT   CLOUDY    82  67  60 E9        29.74F
N.P. DOWNTOWN    N/A     86  68  55 CALM        N/A
N.P. HILLCREST   N/A     85  65  50 E9          N/A
$$

...SOME OBSERVATIONS FROM AROUND THE REGION...

CITY           SKY/WX    TMP DP  RH WIND       PRES   REMARKS
DENVER         RAIN      65  57  75 W14       30.01F
LARAMIE        LGT RAIN  55  32  41 W7        30.19R
CHEYENNE       CLOUDY    66  48  52 NW15G22   30.05R
SCOTTSBLUFF    LGT RAIN  81  47  30 S7        29.86R
RAPID CITY     PTCLDY    80  58  46 N9        29.74R
PIERRE         CLOUDY    82  65  56 SE9       29.69R
WINNER         FAIR      84  67  56 SE9       29.73R
SIOUX FALLS    PTCLDY    82  71  69 S10       29.79R
OMAHA          PTCLDY    85  71  63 SE14      29.80R HX  90
GRAND ISLAND   PTCLDY    84  67  56 SE10      29.77R
KANSAS CITY    PTCLDY    78  67  68 S8        29.88S
WICHITA        MOCLDY    84  63  49 SE12      29.84S
HAYS           CLOUDY    90  57  33 S18       29.77R
LIBERAL        MOCLDY    90  54  29 S18G26    29.83R
GOODLAND       CLOUDY    88  54  31 S13       29.80R
$$



USA.gov is the U.S. government's official web portal to all federal, state and local government web resources and services.